TimeCET,TemperatureF,Dew PointF,Humidity,Sea Level PressureIn,VisibilityMPH,Wind Direction,Wind SpeedMPH,Gust SpeedMPH,PrecipitationIn,Events,Conditions,WindDirDegrees,DateUTC
12:20 AM,37.4,37.4,100,29.53,0.9,Variable,2.3,-,N/A,,Light Drizzle,0,2013-02-01 23:20:00
12:50 AM,37.4,37.4,100,29.50,0.9,NNW,1.2,-,N/A,,Light Drizzle,340,2013-02-01 23:50:00
1:20 AM,37.4,37.4,100,29.50,0.9,NNW,2.3,-,N/A,,Light Drizzle,340,2013-02-02 00:20:00
1:50 AM,37.4,37.4,100,29.47,0.9,NNW,2.3,-,N/A,,Light Drizzle,340,2013-02-02 00:50:00
2:20 AM,37.4,37.4,100,29.47,0.9,Variable,2.3,-,N/A,,Light Drizzle,0,2013-02-02 01:20:00
2:50 AM,37.4,37.4,100,29.44,0.9,Variable,2.3,-,N/A,,Light Drizzle,0,2013-02-02 01:50:00
3:50 AM,37.4,37.4,100,29.39,0.9,Variable,1.2,-,N/A,,Light Drizzle,0,2013-02-02 02:50:00
5:20 AM,37.4,37.4,100,29.36,0.9,WNW,3.5,-,N/A,,Light Drizzle,290,2013-02-02 04:20:00
5:50 AM,37.4,37.4,100,29.33,0.9,NNW,2.3,-,N/A,,Light Drizzle,330,2013-02-02 04:50:00
6:20 AM,37.4,37.4,100,29.33,0.9,Variable,2.3,-,N/A,,Light Drizzle,0,2013-02-02 05:20:00
6:50 AM,39.2,39.2,100,29.30,0.9,Variable,2.3,-,N/A,,Light Drizzle,0,2013-02-02 05:50:00
7:20 AM,39.2,39.2,100,29.30,0.9,NNW,3.5,-,N/A,,Light Drizzle,330,2013-02-02 06:20:00
7:50 AM,39.2,39.2,100,29.30,0.9,WNW,3.5,-,N/A,,Light Drizzle,300,2013-02-02 06:50:00
8:20 AM,37.4,37.4,100,29.30,0.9,Variable,3.5,-,N/A,,Drizzle,0,2013-02-02 07:20:00
8:50 AM,39.2,39.2,100,29.27,0.9,SW,3.5,-,N/A,,Drizzle,220,2013-02-02 07:50:00
9:20 AM,-9999,-9999,N/A,29.27,0.7,WSW,2.3,-,N/A,,Light Drizzle,240,2013-02-02 08:20:00
9:50 AM,39.2,39.2,100,29.27,1.0,NW,3.5,-,N/A,,Light Drizzle,320,2013-02-02 08:50:00
10:20 AM,39.2,39.2,100,29.27,1.1,WNW,3.5,-,N/A,,Light Drizzle,300,2013-02-02 09:20:00
10:50 AM,41.0,41.0,100,29.24,1.1,West,3.5,-,N/A,,Overcast,260,2013-02-02 09:50:00
11:20 AM,41.0,41.0,100,29.24,1.1,Variable,2.3,-,N/A,,Overcast,0,2013-02-02 10:20:00
11:50 AM,41.0,41.0,100,29.24,1.1,West,3.5,-,N/A,,Overcast,270,2013-02-02 10:50:00
12:20 PM,41.0,41.0,100,29.21,1.1,West,3.5,-,N/A,,Mostly Cloudy,270,2013-02-02 11:20:00
12:50 PM,41.0,41.0,100,29.21,1.1,WSW,4.6,-,N/A,,Mostly Cloudy,250,2013-02-02 11:50:00
1:20 PM,42.8,42.8,100,29.24,1.6,WSW,3.5,-,N/A,,Mostly Cloudy,240,2013-02-02 12:20:00
1:50 PM,42.8,42.8,100,29.24,6.2,Variable,2.3,-,N/A,,Mostly Cloudy,0,2013-02-02 12:50:00
2:20 PM,50.0,21.2,32,29.24,6.2,North,9.2,-,N/A,,Mostly Cloudy,360,2013-02-02 13:20:00
2:50 PM,51.8,17.6,26,29.24,6.2,North,10.4,-,N/A,,Mostly Cloudy,350,2013-02-02 13:50:00
3:20 PM,51.8,15.8,24,29.24,6.2,North,10.4,-,N/A,,Mostly Cloudy,350,2013-02-02 14:20:00
3:50 PM,51.8,14.0,22,29.27,6.2,North,12.7,-,N/A,,Mostly Cloudy,360,2013-02-02 14:50:00
4:20 PM,50.0,14.0,24,29.27,6.2,North,11.5,-,N/A,,Mostly Cloudy,350,2013-02-02 15:20:00
4:50 PM,50.0,12.2,22,29.27,6.2,North,12.7,-,N/A,,Mostly Cloudy,350,2013-02-02 15:50:00
5:20 PM,50.0,10.4,20,29.30,6.2,North,11.5,-,N/A,,Partly Cloudy,360,2013-02-02 16:20:00
5:50 PM,50.0,12.2,22,29.33,-9999.0,North,12.7,-,N/A,,Clear,350,2013-02-02 16:50:00
6:20 PM,50.0,10.4,20,29.33,-9999.0,North,12.7,-,N/A,,Clear,360,2013-02-02 17:20:00
6:50 PM,50.0,12.2,22,29.33,-9999.0,North,11.5,-,N/A,,Clear,350,2013-02-02 17:50:00
7:20 PM,50.0,10.4,20,29.36,-9999.0,North,12.7,-,N/A,,Clear,350,2013-02-02 18:20:00
7:50 PM,50.0,10.4,20,29.39,-9999.0,North,12.7,-,N/A,,Clear,350,2013-02-02 18:50:00
8:20 PM,50.0,10.4,20,29.39,-9999.0,North,9.2,-,N/A,,Clear,350,2013-02-02 19:20:00
8:50 PM,48.2,10.4,22,29.42,-9999.0,North,6.9,-,N/A,,Clear,10,2013-02-02 19:50:00
9:20 PM,48.2,10.4,22,29.42,-9999.0,North,5.8,-,N/A,,Clear,10,2013-02-02 20:20:00
9:50 PM,48.2,12.2,24,29.42,-9999.0,North,8.1,-,N/A,,Clear,350,2013-02-02 20:50:00
10:20 PM,48.2,10.4,22,29.44,-9999.0,North,6.9,-,N/A,,Clear,360,2013-02-02 21:20:00
10:50 PM,48.2,10.4,22,29.44,-9999.0,North,6.9,-,N/A,,Clear,360,2013-02-02 21:50:00
11:20 PM,48.2,10.4,22,29.47,-9999.0,North,5.8,-,N/A,,Clear,10,2013-02-02 22:20:00
11:50 PM,46.4,12.2,25,29.50,-9999.0,North,5.8,-,N/A,,Clear,10,2013-02-02 22:50:00